TimeEST,TemperatureF,Dew PointF,Humidity,Sea Level PressureIn,VisibilityMPH,Wind Direction,Wind SpeedMPH,Gust SpeedMPH,PrecipitationIn,Events,Conditions,WindDirDegrees,DateUTC
12:53 AM,30.9,23.0,72,30.01,10.0,East,12.7,-,N/A,,Clear,80,2013-02-26 05:53:00
1:53 AM,30.9,23.0,72,29.99,10.0,ENE,10.4,-,N/A,,Clear,60,2013-02-26 06:53:00
2:53 AM,30.9,23.0,72,29.95,10.0,ENE,13.8,-,N/A,,Clear,60,2013-02-26 07:53:00
3:53 AM,30.9,23.0,72,29.90,10.0,ENE,15.0,-,N/A,,Clear,60,2013-02-26 08:53:00
4:53 AM,32.0,23.0,69,29.90,10.0,East,15.0,-,N/A,,Clear,80,2013-02-26 09:53:00
5:53 AM,32.0,23.0,69,29.86,10.0,East,13.8,21.9,N/A,,Scattered Clouds,80,2013-02-26 10:53:00
6:53 AM,32.0,23.0,69,29.84,10.0,East,17.3,25.3,N/A,,Clear,80,2013-02-26 11:53:00
7:53 AM,33.1,23.0,66,29.82,10.0,ENE,17.3,25.3,N/A,,Clear,60,2013-02-26 12:53:00
8:53 AM,34.0,23.0,64,29.78,-9999.0,North,-9999.0,-,N/A,,Scattered Clouds,0,2013-02-26 13:53:00
9:46 AM,33.8,24.8,70,29.70,5.0,ENE,18.4,29.9,0.01,Rain,Light Freezing Rain,70,2013-02-26 14:46:00
9:53 AM,34.0,25.0,70,29.71,4.0,ENE,20.7,28.8,0.02,Rain,Light Freezing Rain,70,2013-02-26 14:53:00
10:11 AM,33.8,26.6,75,29.67,5.0,ENE,19.6,33.4,0.02,Rain,Light Freezing Rain,70,2013-02-26 15:11:00
10:53 AM,34.0,26.1,73,29.67,5.0,East,19.6,32.2,0.05,Rain,Light Freezing Rain,80,2013-02-26 15:53:00
11:18 AM,33.8,26.6,75,29.61,8.0,ENE,20.7,32.2,0.02,Rain,Light Rain,70,2013-02-26 16:18:00
11:53 AM,34.0,27.0,75,29.60,7.0,ENE,20.7,35.7,0.03,Rain,Light Rain,70,2013-02-26 16:53:00
12:32 PM,33.8,28.4,81,29.55,6.0,East,19.6,34.5,0.00,Rain,Light Rain,80,2013-02-26 17:32:00
12:53 PM,34.0,28.0,79,29.60,3.0,East,16.1,32.2,0.03,Rain,Light Rain,100,2013-02-26 17:53:00
1:02 PM,33.8,28.4,81,29.57,2.0,East,16.1,23.0,0.03,Rain,Rain,90,2013-02-26 18:02:00
1:24 PM,33.8,28.4,81,29.56,4.0,East,16.1,21.9,0.08,Rain,Light Rain,80,2013-02-26 18:24:00
1:51 PM,33.8,30.2,87,29.53,4.0,East,18.4,31.1,0.10,Snow,Light Snow,80,2013-02-26 18:51:00
1:53 PM,34.0,30.0,85,29.56,3.0,East,17.3,24.2,0.10,Snow,Light Snow,80,2013-02-26 18:53:00
2:22 PM,33.8,30.2,87,29.51,2.5,East,18.4,24.2,0.03,Snow,Light Snow,80,2013-02-26 19:22:00
2:42 PM,33.8,30.2,87,29.50,3.0,East,18.4,27.6,0.05,Snow,Light Snow,80,2013-02-26 19:42:00
2:53 PM,34.0,30.0,85,29.52,4.0,ENE,17.3,21.9,0.05,Rain,Light Rain,70,2013-02-26 19:53:00
3:53 PM,35.1,30.9,85,29.51,7.0,East,18.4,26.5,0.02,Rain,Light Rain,90,2013-02-26 20:53:00
4:32 PM,33.8,30.2,87,29.48,2.0,East,19.6,26.5,0.00,Rain,Light Rain,80,2013-02-26 21:32:00
4:53 PM,34.0,30.9,89,29.50,2.5,ENE,16.1,23.0,0.02,Snow,Light Snow,70,2013-02-26 21:53:00
5:14 PM,33.8,30.2,87,29.48,4.0,ENE,13.8,-,0.02,Rain,Light Rain,70,2013-02-26 22:14:00
5:43 PM,33.8,30.2,87,29.48,1.8,ENE,13.8,20.7,0.05,Snow,Light Snow,70,2013-02-26 22:43:00
5:53 PM,34.0,30.9,89,29.50,0.8,ENE,13.8,-,0.06,Snow,Light Snow,70,2013-02-26 22:53:00
6:08 PM,33.8,30.2,87,29.48,1.2,ENE,13.8,-,0.03,Snow,Light Snow,70,2013-02-26 23:08:00
6:19 PM,33.8,30.2,87,29.48,2.0,ENE,12.7,18.4,0.04,Snow,Light Snow,60,2013-02-26 23:19:00
6:35 PM,33.8,30.2,87,29.47,5.0,ENE,10.4,-,0.04,Snow,Light Snow,60,2013-02-26 23:35:00
6:53 PM,34.0,30.9,89,29.49,6.0,ENE,8.1,-,0.04,Snow,Light Snow,60,2013-02-26 23:53:00
7:07 PM,33.8,30.2,87,29.48,2.5,ENE,8.1,-,0.01,Snow,Light Snow,60,2013-02-27 00:07:00
7:19 PM,33.8,30.2,87,29.48,1.5,NE,8.1,-,0.03,Snow,Light Snow,50,2013-02-27 00:19:00
7:51 PM,33.8,32.0,93,29.48,3.0,ENE,6.9,-,0.07,Snow,Light Snow,60,2013-02-27 00:51:00
7:53 PM,34.0,32.0,92,29.50,3.0,ENE,5.8,-,0.07,Snow,Light Snow,60,2013-02-27 00:53:00
8:39 PM,33.8,30.2,87,29.46,2.5,NE,6.9,-,0.02,Snow,Light Snow,40,2013-02-27 01:39:00
8:53 PM,34.0,30.9,89,29.48,3.0,NE,8.1,-,0.02,Snow,Light Snow,50,2013-02-27 01:53:00
9:53 PM,34.0,32.0,92,29.48,3.0,NE,5.8,-,0.01,Snow,Light Snow,40,2013-02-27 02:53:00
10:02 PM,33.8,30.2,87,29.45,2.5,NE,5.8,-,0.00,Snow,Light Snow,40,2013-02-27 03:02:00
10:17 PM,33.8,30.2,87,29.45,1.8,NNE,5.8,-,0.01,Snow,Light Snow,30,2013-02-27 03:17:00
10:44 PM,33.8,32.0,93,29.45,2.0,NNE,4.6,-,0.02,Snow,Light Snow,30,2013-02-27 03:44:00
10:53 PM,33.1,32.0,96,29.47,1.8,NNE,4.6,-,0.02,Snow,Light Snow,30,2013-02-27 03:53:00
11:00 PM,33.8,32.0,93,29.45,2.0,NNE,5.8,-,0.00,Snow,Light Snow,30,2013-02-27 04:00:00
11:36 PM,33.8,32.0,93,29.44,1.5,NNE,3.5,-,0.02,Snow,Light Snow,30,2013-02-27 04:36:00
11:53 PM,33.1,30.9,92,29.47,1.8,NNE,3.5,-,0.02,Snow,Light Snow,20,2013-02-27 04:53:00